GLOBALSTAR M094 [+] (39074 NORAD) Tracking and Keplerian Element Data

This shows tracking and keplerian element data for the satellite.

Feedback or suggestion? Click here.




ElementValue
Catalog39074
NameGLOBALSTAR M094 [+]
Epoch Orbit27231
Epoch Day349.10141232
Epoch Year2018
RAAN216.6206
Inclination51.994
Eccentricity0.0001419
Argument of Perigee75.0232
Mean Anonmoly285.0791
Mean Motion12.62269123
Decay Rate-1.01E-06
L11 39074U 13005C 18349.10141232 -.00000101 00000-0 13716-4 0 9996
L22 39074 51.9940 216.6206 0001419 75.0232 285.0791 12.62269123272311

Live tracking and technical data element details for GLOBALSTAR M094 [+] (NORAD 39074). GLOBALSTAR M094 [+] can be tracked NOW for your location showing map with azimuth and elevation plus other details from your city location.

Track the satellite on the map from your city or location and see movement details for azimuth, elevation, latitude, longitude, range, height, and movement on the map or in text.







IsCatalogInMostPopularTable: catalog: 39074, numindb: 93
Update: records affected: 1



GetName: 39074 GLOBALSTAR M094 [+]

Hit Count: updated at: Sat, 15 Dec 2018 13:23:05 GMT